Location: Natural Bridges National Monument
(37.6093°N, 109.9767°W)
Time: 08:27:17
(UTC-06:00)

USA 32 - Visible Passes

Search period start: 01 April 2015 00:00
Search period end: 11 April 2015 00:00
Orbit: 777 x 784 km, 85.0° (Epoch: 27 March)

Date Brightness Start Highest point End Pass type
(mag) Time Alt. Az. Time Alt. Az. Time Alt. Az.
01 Apr 5.9 20:58:53 10° NE 21:00:45 14° ENE 21:00:45 14° ENE visible
01 Apr 5.1 22:37:47 10° NNW 22:41:19 41° NNW 22:41:19 41° NNW visible
02 Apr 4.4 22:05:04 10° N 22:09:13 55° NNE 22:09:13 55° NNE visible
02 Apr 6.9 23:49:15 10° WNW 23:49:47 11° WNW 23:49:47 11° WNW visible
03 Apr 4.5 21:32:38 10° NNE 21:37:09 39° ENE 21:37:09 39° ENE visible
03 Apr 6.2 23:14:23 10° NW 23:17:43 20° WNW 23:17:43 20° WNW visible
04 Apr 5.2 21:00:37 10° NNE 21:04:37 23° ENE 21:05:06 22° E visible
04 Apr 5.3 22:40:57 10° NNW 22:45:40 37° W 22:45:40 37° W visible
05 Apr 5.8 20:29:32 10° NE 20:31:32 12° ENE 20:33:06 11° E visible
05 Apr 4.2 22:07:57 10° N 22:13:10 68° W 22:13:40 63° SW visible
06 Apr 3.9 21:35:17 10° N 21:40:29 66° E 21:41:42 50° SE visible
06 Apr 6.7 23:18:43 10° NW 23:20:56 12° W 23:22:17 11° W visible
07 Apr 4.6 21:02:55 10° NNE 21:07:42 36° E 21:09:47 26° ESE visible
07 Apr 6.1 22:44:24 10° NNW 22:48:29 23° W 22:50:21 18° WSW visible
08 Apr 5.4 20:30:59 10° NNE 20:34:45 20° ENE 20:37:54 13° ESE visible
08 Apr 5.1 22:11:04 10° NNW 22:15:58 41° W 22:18:29 24° SW visible
09 Apr 4.1 21:38:08 10° N 21:43:22 76° W 21:46:40 23° S visible
10 Apr 4.0 21:05:31 10° N 21:10:40 59° E 21:14:54 15° SSE visible
10 Apr 6.7 22:48:27 10° NW 22:51:10 14° W 22:53:37 10° WSW visible
